Change the Weather History Date:

Wednesday, April 9, 2014

  Actual Average Record
Temperature  
Mean Temperature 46 °F -  
Max Temperature 62 °F 54 °F 76 °F (1991)
Min Temperature 30 °F 34 °F 15 °F (2003)
Degree Days  
Heating Degree Days 19    
Moisture  
Dew Point 28 °F    
Average Humidity 56    
Maximum Humidity 100    
Minimum Humidity 20    
Precipitation  
Precipitation 0.00 in - - ()
Sea Level Pressure  
Sea Level Pressure 29.91 in    
Wind  
Wind Speed 6 mph (WSW)    
Max Wind Speed 17 mph    
Max Gust Speed 23 mph    
Visibility 10 miles    
Events      
Averages and records for this station are not official NWS values.
T = Trace of Precipitation, MM = Missing Value Source: NWS Daily Summary

Daily Weather History Graph

Daily Weather History Graph

Search for Another Location

Airport or City:

Trip Planner

Search our weather history database for the weather conditions in past years. The results will help you decide how hot, cold, wet, or windy it might be!

Date:

Astronomy

Apr. 09, 2014 Rise Set
Actual Time 6:24 AM CDT 7:31 PM CDT
Civil Twilight 5:55 AM CDT 8:00 PM CDT
Nautical Twilight 5:21 AM CDT 8:34 PM CDT
Astronomical Twilight 4:45 AM CDT 9:11 PM CDT
Moon 2:13 PM CDT (4/9) 3:20 AM CDT (4/9)
Length of Visible Light 14h 04m
Length of Day
13h 06m
Waxing Gibbous, 72% of the Moon is Illuminated
Apr 9
Waxing Gibbous
Apr 15
Full
Apr 22
Last Quarter
Apr 29
New
May 6
First Quarter

Hourly Weather History & Observations

Time (CDT) Temp. Windchill Dew Point Humidity Pressure Visibility Wind Dir Wind Speed Gust Speed Precip Events Conditions
12:15 AM 44.6 °F 42.2 °F 32.0 °F 61% 29.94 in 10.0 mi NW 4.6 mph - N/A   Scattered Clouds
12:35 AM 42.8 °F 41.1 °F 32.0 °F 66% 29.94 in 10.0 mi NW 3.5 mph - N/A   Scattered Clouds
12:55 AM 41.0 °F 38.0 °F 32.0 °F 70% 29.94 in 10.0 mi NW 4.6 mph - N/A   Clear
1:15 AM 39.2 °F 35.0 °F 32.0 °F 75% 29.95 in 10.0 mi NW 5.8 mph - N/A   Clear
1:35 AM 37.4 °F 34.9 °F 30.2 °F 75% 29.95 in 10.0 mi NNW 3.5 mph - N/A   Clear
1:55 AM 41.0 °F 37.1 °F 30.2 °F 65% 29.95 in 10.0 mi North 5.8 mph - N/A   Clear
2:15 AM 42.8 °F 39.3 °F 28.4 °F 57% 29.96 in 10.0 mi North 5.8 mph - N/A   Clear
2:35 AM 41.0 °F 39.0 °F 28.4 °F 61% 29.96 in 10.0 mi North 3.5 mph - N/A   Clear
2:55 AM 35.6 °F - 28.4 °F 75% 29.96 in 10.0 mi Calm Calm - N/A   Clear
3:15 AM 37.4 °F - 30.2 °F 75% 29.95 in 10.0 mi Calm Calm - N/A   Clear
3:35 AM 35.6 °F - 28.4 °F 75% 29.95 in 10.0 mi Calm Calm - N/A   Clear
3:55 AM 35.6 °F - 28.4 °F 75% 29.95 in 10.0 mi Calm Calm - N/A   Clear
4:15 AM 33.8 °F - 28.4 °F 81% 29.95 in 10.0 mi Calm Calm - N/A   Clear
4:35 AM 35.6 °F - 30.2 °F 81% 29.96 in 10.0 mi Calm Calm - N/A   Clear
4:55 AM 33.8 °F - 30.2 °F 87% 29.96 in 10.0 mi Calm Calm - N/A   Clear
5:15 AM 32.0 °F - 32.0 °F 100% 29.96 in 10.0 mi Calm Calm - N/A   Clear
5:35 AM 33.8 °F - 30.2 °F 87% 29.97 in 10.0 mi Calm Calm - N/A   Clear
5:45 AM 32.0 °F 26.4 °F 28.4 °F 87% 29.98 in 10.0 mi West 5.8 mph - N/A   Clear
6:45 AM 30.2 °F - 28.4 °F 93% 29.99 in 10.0 mi Calm Calm - N/A   Clear
7:45 AM 35.6 °F - 32.0 °F 87% 30.00 in 10.0 mi Calm Calm - N/A   Clear
8:45 AM 44.6 °F 40.7 °F 30.2 °F 57% 30.00 in 10.0 mi West 6.9 mph - N/A   Clear
9:45 AM 48.2 °F - 28.4 °F 46% 30.00 in 10.0 mi WSW 6.9 mph - N/A   Clear
10:45 AM 53.6 °F - 24.8 °F 33% 30.00 in 10.0 mi WSW 12.7 mph 18.4 mph N/A   Clear
11:45 AM 57.2 °F - 24.8 °F 29% 20.08 in 10.0 mi West 12.7 mph 18.4 mph N/A   Clear
12:45 PM 59.0 °F - 24.8 °F 27% 29.96 in 10.0 mi WSW 13.8 mph - N/A   Clear
1:45 PM 60.8 °F - 24.8 °F 25% 29.93 in 10.0 mi SSW 11.5 mph 17.3 mph N/A   Clear
2:45 PM 62.6 °F - 21.2 °F 20% 29.90 in 10.0 mi SSW 11.5 mph 17.3 mph N/A   Clear
3:45 PM 62.6 °F - 21.2 °F 20% 29.97 in 10.0 mi SSW 11.5 mph 17.3 mph N/A   Clear
4:45 PM 62.6 °F - 21.2 °F 20% 29.87 in 10.0 mi SSW 11.5 mph 17.3 mph N/A   Clear
5:45 PM - - - N/A% 29.81 in 10.0 mi SSW 17.3 mph 23.0 mph N/A   Mostly Cloudy
6:45 PM 60.8 °F - 21.2 °F 22% 29.81 in 10.0 mi SSW 11.5 mph - N/A   Overcast
9:15 PM 53.6 °F - 28.4 °F 38% 29.82 in 10.0 mi SSW 11.5 mph - N/A   Clear
9:35 PM 53.6 °F - 28.4 °F 38% 29.81 in 10.0 mi SSW 12.7 mph - N/A   Clear
9:55 PM 53.6 °F - 28.4 °F 38% 29.81 in 10.0 mi South 13.8 mph 20.7 mph N/A   Clear
10:15 PM 53.6 °F - 28.4 °F 38% 29.80 in 10.0 mi South 13.8 mph - N/A   Clear
10:35 PM 53.6 °F - 28.4 °F 38% 29.80 in 10.0 mi South 13.8 mph - N/A   Clear
10:55 PM 53.6 °F - 28.4 °F 38% 29.78 in 10.0 mi SSW 13.8 mph 19.6 mph N/A   Clear
11:15 PM 53.6 °F - 28.4 °F 38% 29.78 in 10.0 mi SSW 12.7 mph - N/A   Clear
11:35 PM 53.6 °F - 30.2 °F 41% 29.77 in 10.0 mi South 12.7 mph 19.6 mph N/A   Clear
11:55 PM 53.6 °F - 30.2 °F 41% 29.77 in 10.0 mi SSW 13.8 mph - N/A   Clear